loading
|

TRANSIT 5B-1 DEB, 3166

Orbit data source: Space-Track

TRANSIT 5B-1 DEB, 3166 is space debris in LEO originally from a launch on Sat, 28 Sep 1963 UTC launched from the Air Force Western Test Range (AFWTR). Debris objects in space refer to the collection of defunct objects orbiting the Earth. Examples of debris include non-operational satellites, rocket bodies, and fragments generated from explosions, collisions, or faulty payload assembly.

Loading next visibility...
Loading greatness...
TRANSIT 5B-1 DEB details
Identifier
3166, 1963-038H
Orbit
LEO
Last TLE update7 hours ago
Origin
Flag of USUSN BuWeps (US)
ManufacturerUnknown
MissionSpacecraft
Bus & MotorUnknown bus, Unknown motor
MassUnknown
Launch date (UTC)
1963-09-28 (61 years ago)
Launch vehicleUnknown
Launch site
Air Force Western Test Range (AFWTR)
Object type
Payload
Rocket body
Debris
Shape & HBRUnknown
Radar Cross SectionMedium (>0.1 m² and <1 m²)

Expand to show TLE details & history

TLE from 7 hours ago
0 TRANSIT 5B-1 DEB
1 03166U 63038H   24279.57356949  .00000275  00000-0  45190-3 0  9994
2 03166  89.9898 334.5012 0041005 353.3064 137.0271 13.44838123508305
Epoch: 2024-10-05T13:45Z
Definitive object data (Epoch: 2024-10-05T13:45:56.403Z)
Latitude49.44003°
Longitude-66.72361°
Altitude1,121.674 km
Speed7.285 km/s
True Right ascension10h 17m 57s
True Declination49° 16' 42"
Sunlit
Object was in daylight at TLE epoch
Predictive object data (real-time)
Latitude8.13837°
Longitude-66.71351°
Altitude1,124.203 km
Speed7.276 km/s
Apparent Right ascension07h 45m 10s
Apparent Declination-21° 47' 55"
Sunlit
Object is in daylight
Predictive observer data (real-time)
Local Sidereal Time15:06:28
Azimuth264.89° W
Elevation-29.056°
Doppler factor1
Orbital elements
Apogee1,118.985 km
Perigee1,057.752 km
Semi-major axis7,466.505 km
Eccentricity0.0041005
Inclination89.9898°
RAAN334.5012°
Arg. of periapsis353.3064°
True anomaly137.3462°
Mean anomaly137.0271°
Eccentric anomaly137.18677°
Mean motion3.36409 °/min
BSTAR0.0004519
Period107.01 mins
No data available

TRANSIT 5B-1 DEB Visibility forecast

Observer location: 39.9160978°, -105.1181434

TRANSIT 5B-1 DEB is not visible in the next 10 days
Span
Click to sort rows by Start time (UTC) header in descending order
Start Az.
Max El. time (UTC)
Max El. Az.
Max El.
End time (UTC)
End Az.